owner,sensor,date,latitude,longitude,vertical_datum,wind_speed,wind_to_direction,wind_speed_of_gust,qcFlag 
LUMCON,ioos:station:LUMCON:wisl1:1,2019-09-01T00:00:00Z,29.1144,-90.1840,1.0,8.6,41.0,29.2,'11111222,11111222,11111222' 
LUMCON,ioos:station:LUMCON:wisl1:1,2019-09-01T00:15:00Z,29.1144,-90.1840,1.0,5.9,28.0,29.0,'11111222,11111222,11111222' 
LUMCON,ioos:station:LUMCON:wisl1:1,2019-09-01T00:30:00Z,29.1144,-90.1840,1.0,7.0,37.0,27.7,'11111222,11111222,11111222' 
LUMCON,ioos:station:LUMCON:wisl1:1,2019-09-01T00:45:00Z,29.1144,-90.1840,1.0,6.3,40.0,28.3,'11111222,11111222,11111222' 
LUMCON,ioos:station:LUMCON:wisl1:1,2019-09-01T01:00:00Z,29.1144,-90.1840,1.0,5.7,41.0,28.4,'11111222,11111222,11111222' 
LUMCON,ioos:station:LUMCON:wisl1:1,2019-09-01T01:15:00Z,29.1144,-90.1840,1.0,5.7,38.0,28.4,'11111222,11111222,11111222' 
LUMCON,ioos:station:LUMCON:wisl1:1,2019-09-01T01:30:00Z,29.1144,-90.1840,1.0,6.9,47.0,28.7,'11111222,11111222,11111222' 
LUMCON,ioos:station:LUMCON:wisl1:1,2019-09-01T01:45:00Z,29.1144,-90.1840,1.0,7.2,42.0,28.7,'11111222,11111222,11111222' 
LUMCON,ioos:station:LUMCON:wisl1:1,2019-09-01T02:00:00Z,29.1144,-90.1840,1.0,6.9,46.0,28.5,'11111222,11111222,11111222' 
LUMCON,ioos:station:LUMCON:wisl1:1,2019-09-01T02:15:00Z,29.1144,-90.1840,1.0,6.8,49.0,28.6,'11111222,11111222,11111222' 
LUMCON,ioos:station:LUMCON:wisl1:1,2019-09-01T02:30:00Z,29.1144,-90.1840,1.0,7.3,39.0,28.7,'11111222,11111222,11111222' 
LUMCON,ioos:station:LUMCON:wisl1:1,2019-09-01T02:45:00Z,29.1144,-90.1840,1.0,6.2,47.0,28.6,'11111222,11111222,11111222' 
LUMCON,ioos:station:LUMCON:wisl1:1,2019-09-01T03:00:00Z,29.1144,-90.1840,1.0,7.0,52.0,28.5,'11111222,11111222,11111222' 
LUMCON,ioos:station:LUMCON:wisl1:1,2019-09-01T03:15:00Z,29.1144,-90.1840,1.0,6.1,56.0,28.6,'11111222,11111222,11111222' 
LUMCON,ioos:station:LUMCON:wisl1:1,2019-09-01T03:30:00Z,29.1144,-90.1840,1.0,7.2,55.0,28.4,'11111222,11111222,11111222' 
LUMCON,ioos:station:LUMCON:wisl1:1,2019-09-01T03:45:00Z,29.1144,-90.1840,1.0,5.7,53.0,28.4,'11111222,11111222,11111222' 
LUMCON,ioos:station:LUMCON:wisl1:1,2019-09-01T04:00:00Z,29.1144,-90.1840,1.0,5.5,58.0,28.5,'11111222,11111222,11111222' 
LUMCON,ioos:station:LUMCON:wisl1:1,2019-09-01T04:15:00Z,29.1144,-90.1840,1.0,6.7,54.0,28.4,'11111222,11111222,11111222' 
LUMCON,ioos:station:LUMCON:wisl1:1,2019-09-01T04:30:00Z,29.1144,-90.1840,1.0,7.0,49.0,28.4,'11111222,11111222,11111222' 
LUMCON,ioos:station:LUMCON:wisl1:1,2019-09-01T04:45:00Z,29.1144,-90.1840,1.0,5.2,51.0,28.4,'11111222,11111222,11111222' 
LUMCON,ioos:station:LUMCON:wisl1:1,2019-09-01T05:00:00Z,29.1144,-90.1840,1.0,6.7,57.0,28.4,'11111222,11111222,11111222' 
LUMCON,ioos:station:LUMCON:wisl1:1,2019-09-01T05:15:00Z,29.1144,-90.1840,1.0,7.2,57.0,28.4,'11111222,11111222,11111222' 
LUMCON,ioos:station:LUMCON:wisl1:1,2019-09-01T05:30:00Z,29.1144,-90.1840,1.0,6.9,52.0,28.4,'11111222,11111222,11111222' 
LUMCON,ioos:station:LUMCON:wisl1:1,2019-09-01T05:45:00Z,29.1144,-90.1840,1.0,5.2,50.0,28.5,'11111222,11111222,11111222' 
LUMCON,ioos:station:LUMCON:wisl1:1,2019-09-01T06:00:00Z,29.1144,-90.1840,1.0,6.4,51.0,28.4,'11111222,11111222,11111222' 
LUMCON,ioos:station:LUMCON:wisl1:1,2019-09-01T06:15:00Z,29.1144,-90.1840,1.0,6.3,53.0,28.5,'11111222,11111222,11111222' 
LUMCON,ioos:station:LUMCON:wisl1:1,2019-09-01T06:30:00Z,29.1144,-90.1840,1.0,7.4,48.0,28.5,'11111222,11111222,11111222' 
LUMCON,ioos:station:LUMCON:wisl1:1,2019-09-01T06:45:00Z,29.1144,-90.1840,1.0,5.9,55.0,28.5,'11111222,11111222,11111222' 
LUMCON,ioos:station:LUMCON:wisl1:1,2019-09-01T07:00:00Z,29.1144,-90.1840,1.0,5.7,47.0,28.4,'11111222,11111222,11111222' 
LUMCON,ioos:station:LUMCON:wisl1:1,2019-09-01T07:15:00Z,29.1144,-90.1840,1.0,6.0,41.0,28.5,'11111222,11111222,11111222' 
LUMCON,ioos:station:LUMCON:wisl1:1,2019-09-01T07:30:00Z,29.1144,-90.1840,1.0,5.9,58.0,28.4,'11111222,11111222,11111222' 
LUMCON,ioos:station:LUMCON:wisl1:1,2019-09-01T07:45:00Z,29.1144,-90.1840,1.0,5.9,50.0,28.6,'11111222,11111222,11111222' 
LUMCON,ioos:station:LUMCON:wisl1:1,2019-09-01T08:00:00Z,29.1144,-90.1840,1.0,6.0,51.0,28.5,'11111222,11111222,11111222' 
LUMCON,ioos:station:LUMCON:wisl1:1,2019-09-01T08:15:00Z,29.1144,-90.1840,1.0,6.5,48.0,28.6,'11111222,11111222,11111222' 
LUMCON,ioos:station:LUMCON:wisl1:1,2019-09-01T08:30:00Z,29.1144,-90.1840,1.0,6.6,49.0,28.6,'11111222,11111222,11111222' 
LUMCON,ioos:station:LUMCON:wisl1:1,2019-09-01T08:45:00Z,29.1144,-90.1840,1.0,7.6,39.0,28.7,'11111222,11111222,11111222' 
LUMCON,ioos:station:LUMCON:wisl1:1,2019-09-01T09:00:00Z,29.1144,-90.1840,1.0,9.0,38.0,28.6,'11111222,11111222,11111222' 
LUMCON,ioos:station:LUMCON:wisl1:1,2019-09-01T09:15:00Z,29.1144,-90.1840,1.0,5.4,37.0,28.6,'11111222,11111222,11111222' 
LUMCON,ioos:station:LUMCON:wisl1:1,2019-09-01T09:30:00Z,29.1144,-90.1840,1.0,6.5,45.0,28.5,'11111222,11111222,11111222' 
LUMCON,ioos:station:LUMCON:wisl1:1,2019-09-01T09:45:00Z,29.1144,-90.1840,1.0,5.8,33.0,28.5,'11111222,11111222,11111222' 
LUMCON,ioos:station:LUMCON:wisl1:1,2019-09-01T10:00:00Z,29.1144,-90.1840,1.0,7.2,51.0,28.4,'11111222,11111222,11111222' 
LUMCON,ioos:station:LUMCON:wisl1:1,2019-09-01T10:15:00Z,29.1144,-90.1840,1.0,6.1,38.0,28.5,'11111222,11111222,11111222' 
LUMCON,ioos:station:LUMCON:wisl1:1,2019-09-01T10:30:00Z,29.1144,-90.1840,1.0,6.5,59.0,28.4,'11111222,11111222,11111222' 
LUMCON,ioos:station:LUMCON:wisl1:1,2019-09-01T10:45:00Z,29.1144,-90.1840,1.0,4.8,49.0,28.5,'11111222,11111222,11111222' 
LUMCON,ioos:station:LUMCON:wisl1:1,2019-09-01T11:00:00Z,29.1144,-90.1840,1.0,6.1,36.0,28.6,'11111222,11111222,11111222' 
LUMCON,ioos:station:LUMCON:wisl1:1,2019-09-01T11:15:00Z,29.1144,-90.1840,1.0,6.0,49.0,28.6,'11111222,11111222,11111222' 
LUMCON,ioos:station:LUMCON:wisl1:1,2019-09-01T11:30:00Z,29.1144,-90.1840,1.0,7.4,43.0,28.7,'11111222,11111222,11111222' 
LUMCON,ioos:station:LUMCON:wisl1:1,2019-09-01T11:45:00Z,29.1144,-90.1840,1.0,6.2,43.0,28.8,'11111222,11111222,11111222' 
LUMCON,ioos:station:LUMCON:wisl1:1,2019-09-01T12:00:00Z,29.1144,-90.1840,1.0,6.4,47.0,28.9,'11111222,11111222,11111222' 
LUMCON,ioos:station:LUMCON:wisl1:1,2019-09-01T12:15:00Z,29.1144,-90.1840,1.0,5.6,37.0,28.9,'11111222,11111222,11111222' 
LUMCON,ioos:station:LUMCON:wisl1:1,2019-09-01T12:30:00Z,29.1144,-90.1840,1.0,5.6,48.0,29.0,'11111222,11111222,11111222' 
LUMCON,ioos:station:LUMCON:wisl1:1,2019-09-01T12:45:00Z,29.1144,-90.1840,1.0,6.5,34.0,29.0,'11111222,11111222,11111222' 
LUMCON,ioos:station:LUMCON:wisl1:1,2019-09-01T13:00:00Z,29.1144,-90.1840,1.0,5.6,35.0,29.0,'11111222,11111222,11111222' 
LUMCON,ioos:station:LUMCON:wisl1:1,2019-09-01T13:15:00Z,29.1144,-90.1840,1.0,7.2,45.0,29.1,'11111222,11111222,11111222' 
LUMCON,ioos:station:LUMCON:wisl1:1,2019-09-01T13:30:00Z,29.1144,-90.1840,1.0,6.7,39.0,29.1,'11111222,11111222,11111222' 
LUMCON,ioos:station:LUMCON:wisl1:1,2019-09-01T13:45:00Z,29.1144,-90.1840,1.0,7.8,44.0,29.0,'11111222,11111222,11111222' 
LUMCON,ioos:station:LUMCON:wisl1:1,2019-09-01T14:00:00Z,29.1144,-90.1840,1.0,6.8,38.0,29.2,'11111222,11111222,11111222' 
LUMCON,ioos:station:LUMCON:wisl1:1,2019-09-01T14:15:00Z,29.1144,-90.1840,1.0,7.1,36.0,29.4,'11111222,11111222,11111222' 
LUMCON,ioos:station:LUMCON:wisl1:1,2019-09-01T14:30:00Z,29.1144,-90.1840,1.0,6.4,38.0,29.2,'11111222,11111222,11111222' 
LUMCON,ioos:station:LUMCON:wisl1:1,2019-09-01T14:45:00Z,29.1144,-90.1840,1.0,6.2,31.0,29.2,'11111222,11111222,11111222' 
LUMCON,ioos:station:LUMCON:wisl1:1,2019-09-01T15:00:00Z,29.1144,-90.1840,1.0,15.1,64.0,26.6,'11111222,11111222,11111222' 
LUMCON,ioos:station:LUMCON:wisl1:1,2019-09-01T15:15:00Z,29.1144,-90.1840,1.0,7.8,57.0,25.1,'11111222,11111222,11111222' 
LUMCON,ioos:station:LUMCON:wisl1:1,2019-09-01T15:30:00Z,29.1144,-90.1840,1.0,3.1,28.0,25.0,'11111222,11111222,11111222' 
LUMCON,ioos:station:LUMCON:wisl1:1,2019-09-01T15:45:00Z,29.1144,-90.1840,1.0,2.2,6.0,25.2,'11111222,11111222,11111222' 
LUMCON,ioos:station:LUMCON:wisl1:1,2019-09-01T16:00:00Z,29.1144,-90.1840,1.0,4.8,24.0,25.5,'11111222,11111222,11111222' 
LUMCON,ioos:station:LUMCON:wisl1:1,2019-09-01T16:15:00Z,29.1144,-90.1840,1.0,3.7,0.0,26.1,'11111222,11111222,11111222' 
LUMCON,ioos:station:LUMCON:wisl1:1,2019-09-01T16:30:00Z,29.1144,-90.1840,1.0,3.5,339.0,26.1,'11111222,11111222,11111222' 
LUMCON,ioos:station:LUMCON:wisl1:1,2019-09-01T16:45:00Z,29.1144,-90.1840,1.0,6.8,322.0,25.9,'11111222,11111222,11111222' 
LUMCON,ioos:station:LUMCON:wisl1:1,2019-09-01T17:00:00Z,29.1144,-90.1840,1.0,7.4,331.0,25.9,'11111222,11111222,11111222' 
LUMCON,ioos:station:LUMCON:wisl1:1,2019-09-01T17:15:00Z,29.1144,-90.1840,1.0,6.6,320.0,26.5,'11111222,11111222,11111222' 
LUMCON,ioos:station:LUMCON:wisl1:1,2019-09-01T17:30:00Z,29.1144,-90.1840,1.0,5.6,9.0,27.1,'11111222,11111222,11111222' 
LUMCON,ioos:station:LUMCON:wisl1:1,2019-09-01T17:45:00Z,29.1144,-90.1840,1.0,6.6,22.0,26.1,'11111222,11111222,11111222' 
LUMCON,ioos:station:LUMCON:wisl1:1,2019-09-01T18:00:00Z,29.1144,-90.1840,1.0,4.1,87.0,25.9,'11111222,11111222,11111222' 
LUMCON,ioos:station:LUMCON:wisl1:1,2019-09-01T18:15:00Z,29.1144,-90.1840,1.0,3.9,160.0,25.9,'11111222,11111222,11111222' 
LUMCON,ioos:station:LUMCON:wisl1:1,2019-09-01T18:30:00Z,29.1144,-90.1840,1.0,3.1,183.0,25.5,'11111222,11111222,11111222' 
LUMCON,ioos:station:LUMCON:wisl1:1,2019-09-01T18:45:00Z,29.1144,-90.1840,1.0,1.4,202.0,25.7,'11111222,11111222,11111222' 
LUMCON,ioos:station:LUMCON:wisl1:1,2019-09-01T19:00:00Z,29.1144,-90.1840,1.0,2.1,247.0,26.2,'11111222,11111222,11111222' 
LUMCON,ioos:station:LUMCON:wisl1:1,2019-09-01T19:15:00Z,29.1144,-90.1840,1.0,2.3,343.0,26.2,'11111222,11111222,11111222' 
LUMCON,ioos:station:LUMCON:wisl1:1,2019-09-01T19:30:00Z,29.1144,-90.1840,1.0,1.3,355.0,25.9,'11111222,11111222,11111222' 
LUMCON,ioos:station:LUMCON:wisl1:1,2019-09-01T19:45:00Z,29.1144,-90.1840,1.0,3.6,351.0,25.8,'11111222,11111222,11111222' 
LUMCON,ioos:station:LUMCON:wisl1:1,2019-09-01T20:00:00Z,29.1144,-90.1840,1.0,3.1,355.0,25.9,'11111222,11111222,11111222' 
LUMCON,ioos:station:LUMCON:wisl1:1,2019-09-01T20:15:00Z,29.1144,-90.1840,1.0,3.1,336.0,26.0,'11111222,11111222,11111222' 
LUMCON,ioos:station:LUMCON:wisl1:1,2019-09-01T20:30:00Z,29.1144,-90.1840,1.0,2.9,334.0,26.2,'11111222,11111222,11111222' 
LUMCON,ioos:station:LUMCON:wisl1:1,2019-09-01T20:45:00Z,29.1144,-90.1840,1.0,2.8,350.0,26.7,'11111222,11111222,11111222' 
LUMCON,ioos:station:LUMCON:wisl1:1,2019-09-01T21:00:00Z,29.1144,-90.1840,1.0,4.6,355.0,27.1,'11111222,11111222,11111222' 
LUMCON,ioos:station:LUMCON:wisl1:1,2019-09-01T21:15:00Z,29.1144,-90.1840,1.0,3.8,4.0,27.5,'11111222,11111222,11111222' 
LUMCON,ioos:station:LUMCON:wisl1:1,2019-09-01T21:30:00Z,29.1144,-90.1840,1.0,6.6,46.0,28.5,'11111222,11111222,11111222' 
LUMCON,ioos:station:LUMCON:wisl1:1,2019-09-01T21:45:00Z,29.1144,-90.1840,1.0,7.0,49.0,28.6,'11111222,11111222,11111222' 
LUMCON,ioos:station:LUMCON:wisl1:1,2019-09-01T22:00:00Z,29.1144,-90.1840,1.0,8.8,55.0,28.3,'11111222,11111222,11111222' 
LUMCON,ioos:station:LUMCON:wisl1:1,2019-09-01T22:15:00Z,29.1144,-90.1840,1.0,5.8,58.0,28.1,'11111222,11111222,11111222' 
LUMCON,ioos:station:LUMCON:wisl1:1,2019-09-01T22:30:00Z,29.1144,-90.1840,1.0,7.9,37.0,28.0,'11111222,11111222,11111222' 
LUMCON,ioos:station:LUMCON:wisl1:1,2019-09-01T22:45:00Z,29.1144,-90.1840,1.0,7.7,24.0,28.0,'11111222,11111222,11111222' 
LUMCON,ioos:station:LUMCON:wisl1:1,2019-09-01T23:00:00Z,29.1144,-90.1840,1.0,5.8,19.0,28.2,'11111222,11111222,11111222' 
LUMCON,ioos:station:LUMCON:wisl1:1,2019-09-01T23:15:00Z,29.1144,-90.1840,1.0,5.9,7.0,28.3,'11111222,11111222,11111222' 
LUMCON,ioos:station:LUMCON:wisl1:1,2019-09-01T23:30:00Z,29.1144,-90.1840,1.0,4.9,19.0,28.4,'11111222,11111222,11111222' 
LUMCON,ioos:station:LUMCON:wisl1:1,2019-09-01T23:45:00Z,29.1144,-90.1840,1.0,4.9,41.0,28.4,'11111222,11111222,11111222' 
LUMCON,ioos:station:LUMCON:wisl1:1,2019-09-02T00:00:00Z,29.1144,-90.1840,1.0,6.3,22.0,28.4,'11111222,11111222,11111222' 
LUMCON,ioos:station:LUMCON:wisl1:1,2019-09-02T00:15:00Z,29.1144,-90.1840,1.0,5.3,13.0,28.2,'11111222,11111222,11111222' 
LUMCON,ioos:station:LUMCON:wisl1:1,2019-09-02T00:30:00Z,29.1144,-90.1840,1.0,3.6,14.0,28.0,'11111222,11111222,11111222' 
LUMCON,ioos:station:LUMCON:wisl1:1,2019-09-02T00:45:00Z,29.1144,-90.1840,1.0,4.9,24.0,27.9,'11111222,11111222,11111222' 
LUMCON,ioos:station:LUMCON:wisl1:1,2019-09-02T01:00:00Z,29.1144,-90.1840,1.0,8.3,39.0,28.5,'11111222,11111222,11111222' 
LUMCON,ioos:station:LUMCON:wisl1:1,2019-09-02T01:15:00Z,29.1144,-90.1840,1.0,5.1,22.0,28.3,'11111222,11111222,11111222' 
LUMCON,ioos:station:LUMCON:wisl1:1,2019-09-02T01:30:00Z,29.1144,-90.1840,1.0,5.9,25.0,28.2,'11111222,11111222,11111222' 
LUMCON,ioos:station:LUMCON:wisl1:1,2019-09-02T01:45:00Z,29.1144,-90.1840,1.0,5.2,12.0,28.1,'11111222,11111222,11111222' 
LUMCON,ioos:station:LUMCON:wisl1:1,2019-09-02T02:00:00Z,29.1144,-90.1840,1.0,5.6,18.0,28.1,'11111222,11111222,11111222' 
LUMCON,ioos:station:LUMCON:wisl1:1,2019-09-02T02:15:00Z,29.1144,-90.1840,1.0,5.8,25.0,28.1,'11111222,11111222,11111222' 
LUMCON,ioos:station:LUMCON:wisl1:1,2019-09-02T02:30:00Z,29.1144,-90.1840,1.0,3.2,5.0,28.1,'11111222,11111222,11111222' 
LUMCON,ioos:station:LUMCON:wisl1:1,2019-09-02T02:45:00Z,29.1144,-90.1840,1.0,4.1,13.0,28.1,'11111222,11111222,11111222' 
LUMCON,ioos:station:LUMCON:wisl1:1,2019-09-02T03:00:00Z,29.1144,-90.1840,1.0,7.5,34.0,28.1,'11111222,11111222,11111222' 
LUMCON,ioos:station:LUMCON:wisl1:1,2019-09-02T03:15:00Z,29.1144,-90.1840,1.0,6.3,20.0,28.2,'11111222,11111222,11111222' 
LUMCON,ioos:station:LUMCON:wisl1:1,2019-09-02T03:30:00Z,29.1144,-90.1840,1.0,7.7,39.0,28.6,'11111222,11111222,11111222' 
LUMCON,ioos:station:LUMCON:wisl1:1,2019-09-02T03:45:00Z,29.1144,-90.1840,1.0,7.6,37.0,28.6,'11111222,11111222,11111222' 
LUMCON,ioos:station:LUMCON:wisl1:1,2019-09-02T04:00:00Z,29.1144,-90.1840,1.0,7.4,37.0,28.6,'11111222,11111222,11111222' 
LUMCON,ioos:station:LUMCON:wisl1:1,2019-09-02T04:15:00Z,29.1144,-90.1840,1.0,6.8,31.0,28.5,'11111222,11111222,11111222' 
LUMCON,ioos:station:LUMCON:wisl1:1,2019-09-02T04:30:00Z,29.1144,-90.1840,1.0,6.9,28.0,28.4,'11111222,11111222,11111222' 
LUMCON,ioos:station:LUMCON:wisl1:1,2019-09-02T04:45:00Z,29.1144,-90.1840,1.0,4.7,24.0,28.3,'11111222,11111222,11111222' 
LUMCON,ioos:station:LUMCON:wisl1:1,2019-09-02T05:00:00Z,29.1144,-90.1840,1.0,4.4,20.0,27.9,'11111222,11111222,11111222' 
LUMCON,ioos:station:LUMCON:wisl1:1,2019-09-02T05:15:00Z,29.1144,-90.1840,1.0,4.9,16.0,28.0,'11111222,11111222,11111222' 
LUMCON,ioos:station:LUMCON:wisl1:1,2019-09-02T05:30:00Z,29.1144,-90.1840,1.0,3.8,14.0,27.9,'11111222,11111222,11111222' 
LUMCON,ioos:station:LUMCON:wisl1:1,2019-09-02T05:45:00Z,29.1144,-90.1840,1.0,5.4,11.0,27.8,'11111222,11111222,11111222' 
LUMCON,ioos:station:LUMCON:wisl1:1,2019-09-02T06:00:00Z,29.1144,-90.1840,1.0,4.1,18.0,27.8,'11111222,11111222,11111222' 
LUMCON,ioos:station:LUMCON:wisl1:1,2019-09-02T06:15:00Z,29.1144,-90.1840,1.0,4.3,15.0,27.8,'11111222,11111222,11111222' 
LUMCON,ioos:station:LUMCON:wisl1:1,2019-09-02T06:30:00Z,29.1144,-90.1840,1.0,5.7,17.0,27.7,'11111222,11111222,11111222' 
LUMCON,ioos:station:LUMCON:wisl1:1,2019-09-02T06:45:00Z,29.1144,-90.1840,1.0,4.8,17.0,27.7,'11111222,11111222,11111222' 
LUMCON,ioos:station:LUMCON:wisl1:1,2019-09-02T07:00:00Z,29.1144,-90.1840,1.0,4.5,11.0,27.7,'11111222,11111222,11111222' 
LUMCON,ioos:station:LUMCON:wisl1:1,2019-09-02T07:15:00Z,29.1144,-90.1840,1.0,4.5,21.0,27.7,'11111222,11111222,11111222' 
LUMCON,ioos:station:LUMCON:wisl1:1,2019-09-02T07:30:00Z,29.1144,-90.1840,1.0,4.9,21.0,27.7,'11111222,11111222,11111222' 
LUMCON,ioos:station:LUMCON:wisl1:1,2019-09-02T07:45:00Z,29.1144,-90.1840,1.0,3.9,25.0,27.7,'11111222,11111222,11111222' 
LUMCON,ioos:station:LUMCON:wisl1:1,2019-09-02T08:00:00Z,29.1144,-90.1840,1.0,4.0,13.0,27.6,'11111222,11111222,11111222' 
LUMCON,ioos:station:LUMCON:wisl1:1,2019-09-02T08:15:00Z,29.1144,-90.1840,1.0,4.0,16.0,27.6,'11111222,11111222,11111222' 
LUMCON,ioos:station:LUMCON:wisl1:1,2019-09-02T08:30:00Z,29.1144,-90.1840,1.0,3.9,4.0,27.6,'11111222,11111222,11111222' 
LUMCON,ioos:station:LUMCON:wisl1:1,2019-09-02T08:45:00Z,29.1144,-90.1840,1.0,4.5,23.0,27.6,'11111222,11111222,11111222' 
LUMCON,ioos:station:LUMCON:wisl1:1,2019-09-02T09:00:00Z,29.1144,-90.1840,1.0,4.2,8.0,27.5,'11111222,11111222,11111222' 
LUMCON,ioos:station:LUMCON:wisl1:1,2019-09-02T09:15:00Z,29.1144,-90.1840,1.0,4.0,18.0,27.6,'11111222,11111222,11111222' 
LUMCON,ioos:station:LUMCON:wisl1:1,2019-09-02T09:30:00Z,29.1144,-90.1840,1.0,4.1,19.0,27.6,'11111222,11111222,11111222' 
LUMCON,ioos:station:LUMCON:wisl1:1,2019-09-02T09:45:00Z,29.1144,-90.1840,1.0,4.4,13.0,27.6,'11111222,11111222,11111222' 
LUMCON,ioos:station:LUMCON:wisl1:1,2019-09-02T10:00:00Z,29.1144,-90.1840,1.0,3.6,15.0,27.6,'11111222,11111222,11111222' 
LUMCON,ioos:station:LUMCON:wisl1:1,2019-09-02T10:15:00Z,29.1144,-90.1840,1.0,3.3,12.0,27.6,'11111222,11111222,11111222' 
LUMCON,ioos:station:LUMCON:wisl1:1,2019-09-02T10:30:00Z,29.1144,-90.1840,1.0,3.7,12.0,27.5,'11111222,11111222,11111222' 
LUMCON,ioos:station:LUMCON:wisl1:1,2019-09-02T10:45:00Z,29.1144,-90.1840,1.0,2.4,14.0,27.4,'11111222,11111222,11111222' 
LUMCON,ioos:station:LUMCON:wisl1:1,2019-09-02T11:00:00Z,29.1144,-90.1840,1.0,3.8,11.0,27.4,'11111222,11111222,11111222' 
LUMCON,ioos:station:LUMCON:wisl1:1,2019-09-02T11:15:00Z,29.1144,-90.1840,1.0,3.7,1.0,27.6,'11111222,11111222,11111222' 
LUMCON,ioos:station:LUMCON:wisl1:1,2019-09-02T11:30:00Z,29.1144,-90.1840,1.0,5.1,355.0,27.6,'11111222,11111222,11111222' 
LUMCON,ioos:station:LUMCON:wisl1:1,2019-09-02T11:45:00Z,29.1144,-90.1840,1.0,5.6,341.0,27.2,'11111222,11111222,11111222' 
LUMCON,ioos:station:LUMCON:wisl1:1,2019-09-02T12:00:00Z,29.1144,-90.1840,1.0,4.5,343.0,27.1,'11111222,11111222,11111222' 
LUMCON,ioos:station:LUMCON:wisl1:1,2019-09-02T12:15:00Z,29.1144,-90.1840,1.0,4.1,339.0,27.1,'11111222,11111222,11111222' 
LUMCON,ioos:station:LUMCON:wisl1:1,2019-09-02T12:30:00Z,29.1144,-90.1840,1.0,5.9,351.0,27.0,'11111222,11111222,11111222' 
LUMCON,ioos:station:LUMCON:wisl1:1,2019-09-02T12:45:00Z,29.1144,-90.1840,1.0,5.2,351.0,27.1,'11111222,11111222,11111222' 
LUMCON,ioos:station:LUMCON:wisl1:1,2019-09-02T13:30:00Z,29.1144,-90.1840,1.0,6.6,0.0,27.6,'11111222,11111222,11111222' 
LUMCON,ioos:station:LUMCON:wisl1:1,2019-09-02T13:45:00Z,29.1144,-90.1840,1.0,6.9,11.0,27.7,'11111222,11111222,11111222' 
LUMCON,ioos:station:LUMCON:wisl1:1,2019-09-02T14:00:00Z,29.1144,-90.1840,1.0,6.2,8.0,27.9,'11111222,11111222,11111222' 
LUMCON,ioos:station:LUMCON:wisl1:1,2019-09-02T14:15:00Z,29.1144,-90.1840,1.0,6.1,9.0,28.4,'11111222,11111222,11111222' 
LUMCON,ioos:station:LUMCON:wisl1:1,2019-09-02T14:30:00Z,29.1144,-90.1840,1.0,5.7,11.0,28.2,'11111222,11111222,11111222' 
LUMCON,ioos:station:LUMCON:wisl1:1,2019-09-02T14:45:00Z,29.1144,-90.1840,1.0,7.5,12.0,28.5,'11111222,11111222,11111222' 
LUMCON,ioos:station:LUMCON:wisl1:1,2019-09-02T15:00:00Z,29.1144,-90.1840,1.0,6.2,0.0,28.5,'11111222,11111222,11111222' 
LUMCON,ioos:station:LUMCON:wisl1:1,2019-09-02T15:15:00Z,29.1144,-90.1840,1.0,7.7,353.0,28.5,'11111222,11111222,11111222' 
LUMCON,ioos:station:LUMCON:wisl1:1,2019-09-02T15:30:00Z,29.1144,-90.1840,1.0,6.0,5.0,28.4,'11111222,11111222,11111222' 
LUMCON,ioos:station:LUMCON:wisl1:1,2019-09-02T15:45:00Z,29.1144,-90.1840,1.0,6.5,8.0,28.6,'11111222,11111222,11111222' 
LUMCON,ioos:station:LUMCON:wisl1:1,2019-09-02T16:00:00Z,29.1144,-90.1840,1.0,7.2,355.0,28.5,'11111222,11111222,11111222' 
LUMCON,ioos:station:LUMCON:wisl1:1,2019-09-02T16:15:00Z,29.1144,-90.1840,1.0,6.1,8.0,28.7,'11111222,11111222,11111222' 
LUMCON,ioos:station:LUMCON:wisl1:1,2019-09-02T16:30:00Z,29.1144,-90.1840,1.0,5.9,5.0,29.2,'11111222,11111222,11111222' 
LUMCON,ioos:station:LUMCON:wisl1:1,2019-09-02T16:45:00Z,29.1144,-90.1840,1.0,7.4,11.0,28.8,'11111222,11111222,11111222' 
LUMCON,ioos:station:LUMCON:wisl1:1,2019-09-02T17:00:00Z,29.1144,-90.1840,1.0,6.1,4.0,28.9,'11111222,11111222,11111222' 
LUMCON,ioos:station:LUMCON:wisl1:1,2019-09-02T17:15:00Z,29.1144,-90.1840,1.0,7.1,14.0,29.1,'11111222,11111222,11111222' 
LUMCON,ioos:station:LUMCON:wisl1:1,2019-09-02T17:30:00Z,29.1144,-90.1840,1.0,6.3,1.0,29.0,'11111222,11111222,11111222' 
LUMCON,ioos:station:LUMCON:wisl1:1,2019-09-02T17:45:00Z,29.1144,-90.1840,1.0,8.5,353.0,28.9,'11111222,11111222,11111222' 
LUMCON,ioos:station:LUMCON:wisl1:1,2019-09-02T18:00:00Z,29.1144,-90.1840,1.0,6.2,13.0,28.9,'11111222,11111222,11111222' 
LUMCON,ioos:station:LUMCON:wisl1:1,2019-09-02T18:15:00Z,29.1144,-90.1840,1.0,7.1,10.0,29.1,'11111222,11111222,11111222' 
LUMCON,ioos:station:LUMCON:wisl1:1,2019-09-02T18:30:00Z,29.1144,-90.1840,1.0,5.5,26.0,29.2,'11111222,11111222,11111222' 
LUMCON,ioos:station:LUMCON:wisl1:1,2019-09-02T18:45:00Z,29.1144,-90.1840,1.0,6.7,23.0,29.3,'11111222,11111222,11111222' 
LUMCON,ioos:station:LUMCON:wisl1:1,2019-09-02T19:00:00Z,29.1144,-90.1840,1.0,7.2,25.0,29.5,'11111222,11111222,11111222' 
LUMCON,ioos:station:LUMCON:wisl1:1,2019-09-02T19:15:00Z,29.1144,-90.1840,1.0,7.5,21.0,29.5,'11111222,11111222,11111222' 
LUMCON,ioos:station:LUMCON:wisl1:1,2019-09-02T19:30:00Z,29.1144,-90.1840,1.0,7.2,31.0,29.3,'11111222,11111222,11111222' 
LUMCON,ioos:station:LUMCON:wisl1:1,2019-09-02T19:45:00Z,29.1144,-90.1840,1.0,7.7,35.0,29.2,'11111222,11111222,11111222' 
LUMCON,ioos:station:LUMCON:wisl1:1,2019-09-02T20:00:00Z,29.1144,-90.1840,1.0,8.1,43.0,29.2,'11111222,11111222,11111222' 
LUMCON,ioos:station:LUMCON:wisl1:1,2019-09-02T20:15:00Z,29.1144,-90.1840,1.0,8.5,31.0,29.1,'11111222,11111222,11111222' 
LUMCON,ioos:station:LUMCON:wisl1:1,2019-09-02T20:30:00Z,29.1144,-90.1840,1.0,8.2,33.0,29.2,'11111222,11111222,11111222' 
LUMCON,ioos:station:LUMCON:wisl1:1,2019-09-02T20:45:00Z,29.1144,-90.1840,1.0,7.4,23.0,29.2,'11111222,11111222,11111222' 
LUMCON,ioos:station:LUMCON:wisl1:1,2019-09-02T21:00:00Z,29.1144,-90.1840,1.0,6.7,31.0,29.2,'11111222,11111222,11111222' 
LUMCON,ioos:station:LUMCON:wisl1:1,2019-09-02T21:15:00Z,29.1144,-90.1840,1.0,7.4,29.0,29.1,'11111222,11111222,11111222' 
LUMCON,ioos:station:LUMCON:wisl1:1,2019-09-02T21:30:00Z,29.1144,-90.1840,1.0,6.6,30.0,29.1,'11111222,11111222,11111222' 
LUMCON,ioos:station:LUMCON:wisl1:1,2019-09-02T21:45:00Z,29.1144,-90.1840,1.0,7.0,25.0,29.1,'11111222,11111222,11111222' 
LUMCON,ioos:station:LUMCON:wisl1:1,2019-09-02T22:00:00Z,29.1144,-90.1840,1.0,7.0,23.0,29.1,'11111222,11111222,11111222' 
LUMCON,ioos:station:LUMCON:wisl1:1,2019-09-02T22:15:00Z,29.1144,-90.1840,1.0,7.8,30.0,29.0,'11111222,11111222,11111222' 
LUMCON,ioos:station:LUMCON:wisl1:1,2019-09-02T22:30:00Z,29.1144,-90.1840,1.0,7.9,30.0,29.0,'11111222,11111222,11111222' 
LUMCON,ioos:station:LUMCON:wisl1:1,2019-09-02T22:45:00Z,29.1144,-90.1840,1.0,7.1,32.0,29.0,'11111222,11111222,11111222' 
LUMCON,ioos:station:LUMCON:wisl1:1,2019-09-02T23:00:00Z,29.1144,-90.1840,1.0,7.8,41.0,29.0,'11111222,11111222,11111222' 
LUMCON,ioos:station:LUMCON:wisl1:1,2019-09-02T23:15:00Z,29.1144,-90.1840,1.0,8.2,32.0,28.9,'11111222,11111222,11111222' 
LUMCON,ioos:station:LUMCON:wisl1:1,2019-09-02T23:30:00Z,29.1144,-90.1840,1.0,7.2,34.0,28.9,'11111222,11111222,11111222' 
LUMCON,ioos:station:LUMCON:wisl1:1,2019-09-02T23:45:00Z,29.1144,-90.1840,1.0,4.7,30.0,28.9,'11111222,11111222,11111222' 
LUMCON,ioos:station:LUMCON:wisl1:1,2019-09-03T00:00:00Z,29.1144,-90.1840,1.0,6.6,33.0,28.8,'11111222,11111222,11111222' 
LUMCON,ioos:station:LUMCON:wisl1:1,2019-09-03T00:15:00Z,29.1144,-90.1840,1.0,6.4,28.0,28.9,'11111222,11111222,11111222' 
LUMCON,ioos:station:LUMCON:wisl1:1,2019-09-03T00:30:00Z,29.1144,-90.1840,1.0,7.0,35.0,28.9,'11111222,11111222,11111222' 
LUMCON,ioos:station:LUMCON:wisl1:1,2019-09-03T00:45:00Z,29.1144,-90.1840,1.0,5.0,27.0,28.9,'11111222,11111222,11111222' 
LUMCON,ioos:station:LUMCON:wisl1:1,2019-09-03T01:00:00Z,29.1144,-90.1840,1.0,5.4,39.0,28.9,'11111222,11111222,11111222' 
LUMCON,ioos:station:LUMCON:wisl1:1,2019-09-03T01:15:00Z,29.1144,-90.1840,1.0,4.9,42.0,29.0,'11111222,11111222,11111222' 
LUMCON,ioos:station:LUMCON:wisl1:1,2019-09-03T01:30:00Z,29.1144,-90.1840,1.0,5.9,40.0,28.9,'11111222,11111222,11111222' 